Location: El Mouella
(16.4949°N, 9.1594°W)
Time: 18:00:05
(UTC+00:00)

MOS 1 - Pass Details

Date: 02 June 2020
Orbit: 878 x 892 km, 99.2° (Epoch: 04 July)

Event Time Altitude Azimuth Distance (km) Brightness Sun altitude
Exits shadow 20:53:10 34° 178° (S) 1,437 5.1 -23.3°
Maximum altitude 20:55:48 76° 257° (WSW) 919 4.4 -23.8°
Drops below altitude 10° 21:01:29 10° 343° (NNW) 2,554 7.4 -24.9°
Sets 21:03:53 0° 345° (NNW) 3,493 8.2 -25.4°
